Location: Batang Balui
(2.7000°N, 113.7833°E)
Time: 23:34:00
(UTC+00:00)

PAYLOAD B - Pass Details

Date: 03 December 2021
Orbit: 848 x 872 km, 99.1° (Epoch: 27 January)

Event Time Altitude Azimuth Distance (km) Brightness Sun altitude
Rises 10:44:18 0° 166° (SSE) 3,446 7.5 -7.9°
Reaches altitude 10° 10:46:41 10° 166° (SSE) 2,510 6.8 -8.4°
Maximum altitude 10:52:16 87° 78° (ENE) 874 4.3 -9.7°
Drops below altitude 10° 10:57:52 10° 348° (NNW) 2,510 6.6 -11.0°
Sets 11:00:15 0° 348° (NNW) 3,446 7.3 -11.5°
